Weather History for KMLS - February, 2012

Change the Weather History Date:

Monday, February 27, 2012

  Actual Average Record
Temperature  
Mean Temperature 16 °F 28 °F  
Max Temperature 28 °F 40 °F 73 °F (1992)
Min Temperature 3 °F 17 °F -24 °F (1960)
Degree Days  
Heating Degree Days 49 37  
Month to date heating degree days 1010 1101  
Since 1 July heating degree days 4853 5697  
Cooling Degree Days 0 0  
Month to date cooling degree days 0 0  
Year to date cooling degree days 0 0  
Moisture  
Dew Point 8 °F    
Average Humidity 75    
Maximum Humidity 88    
Minimum Humidity 62    
Precipitation  
Precipitation 0.00 in 0.01 in 0.31 in (1948)
Month to date precipitation 0.34 0.22  
Year to date precipitation 0.67 0.54  
Sea Level Pressure  
Sea Level Pressure 30.21 in    
Wind  
Wind Speed 6 mph (NE)    
Max Wind Speed 10 mph    
Max Gust Speed 14 mph    
Visibility 10 miles    
Events      
T = Trace of Precipitation, MM = Missing Value Source: NWS Daily Summary

Daily Weather History Graph

Daily Weather History Graph

Search for Another Location

Airport or City:

Trip Planner

Search our weather history database for the weather conditions in past years. The results will help you decide how hot, cold, wet, or windy it might be!

Date:

Astronomy

Feb. 27, 2012 Rise Set
Actual Time 6:47 AM MST 5:46 PM MST
Civil Twilight 6:16 AM MST 6:16 PM MST
Nautical Twilight 5:42 AM MST 6:51 PM MST
Astronomical Twilight 5:07 AM MST 7:26 PM MST
Moon 8:54 AM MST (2/27) No Moon Set
Length of Visible Light 11h 59m
Length of Day
10h 58m
Waxing Crescent, 29% of the Moon is Illuminated
Feb 27
Waxing Crescent
Feb 29
First Quarter
Mar 8
Full
Mar 14
Last Quarter
Mar 22
New

Hourly Weather History & Observations

Time (MST) Temp. Windchill Dew Point Humidity Pressure Visibility Wind Dir Wind Speed Gust Speed Precip Events Conditions
12:53 AM 6.1 °F - 3.0 °F 87% 30.39 in 10.0 mi Calm Calm - N/A   Clear
1:53 AM 6.1 °F - 1.9 °F 83% 30.36 in 10.0 mi Calm Calm - N/A   Clear
2:53 AM 3.9 °F -3.4 °F -0.0 °F 84% 30.35 in 10.0 mi NNE 3.5 mph - N/A   Partly Cloudy
3:53 AM 3.9 °F -6.9 °F -0.0 °F 84% 30.33 in 10.0 mi NNE 5.8 mph - N/A   Clear
4:53 AM 3.9 °F -6.9 °F -0.0 °F 84% 30.33 in 10.0 mi NNE 5.8 mph - N/A   Clear
5:53 AM 3.9 °F -9.4 °F -0.0 °F 84% 30.31 in 10.0 mi NNE 8.1 mph - N/A   Clear
6:53 AM 3.0 °F -9.3 °F -0.9 °F 84% 30.31 in 10.0 mi NNE 6.9 mph - N/A   Clear
7:53 AM 3.9 °F -8.2 °F -0.0 °F 84% 30.30 in 10.0 mi NNE 6.9 mph - N/A   Clear
8:53 AM 8.1 °F -5.3 °F 3.9 °F 83% 30.28 in 10.0 mi NNE 9.2 mph - N/A   Clear
9:53 AM 15.1 °F 4.2 °F 9.0 °F 77% 30.24 in 10.0 mi NE 8.1 mph - N/A   Clear
10:53 AM 19.0 °F 12.3 °F 10.9 °F 71% 30.22 in 10.0 mi East 4.6 mph - N/A   Clear
11:53 AM 21.0 °F 12.4 °F 12.0 °F 68% 30.17 in 10.0 mi East 6.9 mph - N/A   Clear
12:53 PM 25.0 °F 15.5 °F 14.0 °F 63% 30.14 in 10.0 mi NNE 9.2 mph - N/A   Clear
1:53 PM 26.1 °F 17.6 °F 15.1 °F 63% 30.12 in 10.0 mi ENE 8.1 mph - N/A   Clear
2:53 PM 27.0 °F 19.5 °F 15.1 °F 61% 30.12 in 10.0 mi NNE 6.9 mph - N/A   Clear
3:53 PM 27.0 °F 19.5 °F 15.1 °F 61% 30.11 in 10.0 mi NE 6.9 mph - N/A   Clear
4:53 PM 25.0 °F 17.1 °F 16.0 °F 69% 30.12 in 10.0 mi NE 6.9 mph - N/A   Clear
5:53 PM 21.0 °F 10.6 °F 15.1 °F 78% 30.12 in 10.0 mi NNE 9.2 mph - N/A   Clear
6:53 PM 19.9 °F 9.3 °F 14.0 °F 78% 30.13 in 10.0 mi NNE 9.2 mph - N/A   Clear
7:53 PM 18.0 °F 8.7 °F 12.9 °F 81% 30.13 in 10.0 mi NE 6.9 mph - N/A   Clear
8:53 PM 16.0 °F 6.3 °F 12.0 °F 84% 30.12 in 10.0 mi NNE 6.9 mph - N/A   Clear
9:53 PM 15.1 °F 4.2 °F 10.9 °F 84% 30.10 in 10.0 mi NNE 8.1 mph - N/A   Clear
10:53 PM 14.0 °F 6.5 °F 10.0 °F 84% 30.11 in 10.0 mi NNE 4.6 mph - N/A   Clear
11:53 PM 12.9 °F 3.8 °F 10.0 °F 88% 30.08 in 10.0 mi North 5.8 mph - N/A   Clear